Location: Innsbruck
(47.2657°N, 11.3914°E)
Time: 06:58:48
(UTC+02:00)

Nauka - Pass Details

Date: 26 September 2021
Orbit: 418 x 423 km, 51.6° (Epoch: 15 October)

Event Time Altitude Azimuth Distance (km) Brightness Sun altitude
Rises 20:57:06 0° 289° (WNW) 2,367 ? -19.7°
Reaches altitude 10° 20:59:16 10° 297° (WNW) 1,503 ? -20.0°
Maximum altitude 21:02:31 42° 10° (N) 610 ? -20.6°
Enters shadow 21:02:34 42° 13° (NNE) 611 ? -20.6°
